STARLINK-11292 [DTC]

Last updated on Tue Oct 08 2024 00:02:04 GMT+0000 (Coordinated Universal Time)

1 61203U 24171D 24281.58334491 -.00118796 00000+0 -73187-3 0 9993 2 61203 53.1578 211.6936 0000758 90.5392 352.8196 15.76733307 3929
UTC large
Height (km)
Speed (km/s)
/
Latitude / Longitude
Inclination (degrees)
Orbital Period (minutes)
Azimuth
Elevation
Range (km)
Doppler Factor

Next 0 passes for location: London (51.5072 / 0.1276)

Sorry there are no passes over London.